QPF
0.00 0.00 0.00 0.00 0.00 0.00 0.00 0.00 0.00 0.00 0.00 0.00 0.00 0.00 0.00 0.00 0.00 0.00 0.00 0.00 0.00 0.00 0.00 0.00 0.00 0.01 0.00 0.00 0.01 0.02 0.00 0.00 0.00 0.00 0.00 0.00 0.00 0.00 0.00 0.00 0.00 0.00 0.00 0.00
0.00 0.00 0.00 0.00 0.00 0.00 0.00 0.00 0.00 0.00 0.00 0.00 0.00 0.00 0.00 0.00 0.00 0.00 0.00 0.00 0.00 0.00 0.00 0.00 0.00 0.00 0.02 0.00 0.01 0.02 0.02 0.02 0.03 0.02 0.00 0.00 0.00 0.00 0.00 0.00 0.00 0.00 0.00 0.00
0.00 0.00 0.00 0.00 0.00 0.00 0.00 0.00 0.00 0.00 0.00 0.00 0.00 0.00 0.00 0.00 0.00 0.00 0.00 0.00 0.00 0.00 0.00 0.00 0.00 0.00 0.02 0.00 0.02 0.02 0.03 0.03 0.05 0.06 0.05 0.04 0.05 0.06 0.04 0.00 0.00 0.02 0.04 0.13
0.00 0.00 0.00 0.00 0.00 0.00 0.00 0.00 0.00 0.00 0.00 0.00 0.00 0.01 0.01 0.00 0.00 0.00 0.00 0.00 0.00 0.00 0.00 0.00 0.00 0.00 0.01 0.00 0.01 0.02 0.03 0.02 0.04 0.05 0.09 0.11 0.07 0.09 0.16 0.08 0.07 0.13 0.16 0.08
0.00 0.00 0.00 0.00 0.00 0.00 0.00 0.00 0.00 0.00 0.00 0.00 0.00 0.00 0.01 0.01 0.01 0.01 0.01 0.01 0.02 0.02 0.02 0.01 0.00 0.00 0.01 0.03 0.03 0.02 0.01 0.01 0.02 0.02 0.02 0.04 0.04 0.03 0.03 0.11 0.14 0.05 0.00 0.00
0.00 0.00 0.00 0.00 0.00 0.00 0.00 0.00 0.00 0.00 0.00 0.00 0.00 0.00 0.00 0.00 0.00 0.02 0.02 0.03 0.03 0.04 0.02 0.01 0.01 0.01 0.02 0.04 0.08 0.02 0.02 0.02 0.02 0.01 0.02 0.00 0.00 0.01 0.01 0.04 0.11 0.05 0.02 0.02
0.00 0.00 0.00 0.00 0.00 0.00 0.00 0.00 0.00 0.00 0.00 0.00 0.00 0.00 0.00 0.00 0.00 0.00 0.01 0.02 0.03 0.03 0.03 0.02 0.01 0.01 0.01 0.02 0.04 0.06 0.08 0.03 0.01 0.00 0.00 0.01 0.00 0.00 0.02 0.09 0.05 0.03 0.01 0.03
0.00 0.00 0.00 0.00 0.00 0.00 0.00 0.00 0.00 0.00 0.00 0.00 0.00 0.00 0.00 0.00 0.00 0.00 0.00 0.02 0.02 0.00 0.00 0.00 0.00 0.00 0.00 0.01 0.01 0.02 0.02 0.02 0.02 0.01 0.01 0.02 0.02 0.00 0.04 0.05 0.02 0.02 0.01 0.01
0.00 0.00 0.00 0.00 0.00 0.00 0.00 0.00 0.00 0.00 0.00 0.00 0.00 0.00 0.00 0.00 0.00 0.00 0.00 0.00 0.00 0.01 0.00 0.01 0.00 0.00 0.00 0.00 0.00 0.01 0.02 0.01 0.00 0.00 0.01 0.07 0.11 0.08 0.06 0.03 0.02 0.01 0.00 0.00
0.00 0.00 0.00 0.00 0.00 0.00 0.00 0.00 0.00 0.00 0.00 0.00 0.00 0.00 0.00 0.00 0.00 0.00 0.00 0.00 0.00 0.00 0.00 0.00 0.00 0.00 0.00 0.00 0.00 0.00 0.00 0.00 0.00 0.00 0.00 0.11 0.12 0.14 0.08 0.08 0.03 0.00 0.00 0.00
0.00 0.00 0.00 0.00 0.00 0.00 0.00 0.00 0.00 0.00 0.00 0.00 0.00 0.00 0.00 0.00 0.00 0.00 0.00 0.00 0.00 0.00 0.00 0.00 0.00 0.00 0.00 0.00 0.00 0.00 0.00 0.00 0.00 0.00 0.00 0.08 0.14 0.08 0.04 0.02 0.01 0.00 0.00 0.00
0.00 0.00 0.00 0.00 0.00 0.00 0.00 0.00 0.00 0.00 0.00 0.00 0.00 0.00 0.00 0.00 0.00 0.00 0.00 0.00 0.00 0.00 0.00 0.00 0.00 0.00 0.00 0.00 0.00 0.00 0.00 0.00 0.00 0.00 0.01 0.06 0.07 0.04 0.06 0.06 0.01 0.00 0.00 0.00
0.00 0.00 0.00 0.00 0.00 0.00 0.00 0.00 0.00 0.00 0.00 0.00 0.00 0.00 0.00 0.00 0.00 0.00 0.00 0.00 0.00 0.00 0.00 0.00 0.00 0.00 0.00 0.00 0.00 0.00 0.00 0.00 0.00 0.00 0.00 0.03 0.05 0.03 0.02 0.01 0.00 0.00 0.00 0.00
0.00 0.00 0.00 0.00 0.00 0.00 0.00 0.00 0.00 0.00 0.00 0.00 0.00 0.00 0.00 0.00 0.00 0.00 0.00 0.00 0.00 0.00 0.00 0.00 0.00 0.00 0.00 0.00 0.00 0.00 0.02 0.02 0.03 0.09 0.11 0.12 0.09 0.06 0.03 0.00 0.00 0.00 0.00 0.00
0.00 0.00 0.00 0.00 0.00 0.00 0.00 0.00 0.00 0.00 0.00 0.00 0.00 0.00 0.00 0.00 0.00 0.00 0.00 0.00 0.00 0.00 0.00 0.00 0.00 0.00 0.00 0.00 0.00 0.00 0.05 0.05 0.03 0.15 0.18 0.16 0.10 0.06 0.02 0.00 0.00 0.00 0.00 0.00
0.00 0.00 0.00 0.00 0.00 0.00 0.00 0.00 0.00 0.00 0.00 0.00 0.00 0.00 0.00 0.00 0.00 0.00 0.00 0.00 0.00 0.00 0.00 0.00 0.00 0.00 0.00 0.00 0.00 0.00 0.00 0.00 0.03 0.09 0.17 0.14 0.09 0.04 0.01 0.00 0.00 0.00 0.00 0.00
0.00 0.00 0.00 0.00 0.00 0.00 0.00 0.00 0.00 0.00 0.00 0.00 0.00 0.01 0.01 0.00 0.00 0.01 0.02 0.00 0.00 0.00 0.00 0.00 0.00 0.00 0.00 0.00 0.00 0.00 0.00 0.01 0.08 0.03 0.09 0.10 0.06 0.02 0.00 0.00 0.00 0.00 0.00 0.00
0.00 0.00 0.00 0.00 0.00 0.00 0.01 0.01 0.01 0.02 0.02 0.02 0.02 0.01 0.00 0.00 0.00 0.10 0.10 0.02 0.01 0.01 0.00 0.00 0.00 0.00 0.00 0.00 0.01 0.05 0.00 0.01 0.04 0.05 0.08 0.08 0.03 0.02 0.01 0.00 0.00 0.00 0.00 0.00
0.00 0.00 0.00 0.00 0.00 0.00 0.01 0.01 0.01 0.03 0.05 0.04 0.04 0.02 0.01 0.01 0.00 0.05 0.12 0.12 0.07 0.01 0.00 0.00 0.00 0.00 0.00 0.00 0.00 0.07 0.02 0.00 0.01 0.02 0.05 0.04 0.01 0.03 0.01 0.00 0.01 0.01 0.00 0.00
0.00 0.00 0.00 0.00 0.00 0.00 0.00 0.01 0.01 0.02 0.04 0.03 0.04 0.01 0.02 0.03 0.01 0.02 0.03 0.03 0.01 0.00 0.00 0.00 0.00 0.00 0.00 0.00 0.00 0.02 0.02 0.05 0.02 0.01 0.05 0.07 0.06 0.02 0.01 0.01 0.01 0.01 0.00 0.00
0.00 0.00 0.00 0.00 0.00 0.00 0.00 0.00 0.00 0.01 0.01 0.02 0.03 0.03 0.03 0.04 0.07 0.07 0.05 0.05 0.04 0.02 0.01 0.00 0.00 0.00 0.00 0.00 0.00 0.00 0.02 0.09 0.12 0.05 0.04 0.03 0.02 0.00 0.00 0.00 0.01 0.02 0.01 0.00
0.00 0.00 0.00 0.00 0.00 0.00 0.00 0.00 0.00 0.00 0.00 0.01 0.01 0.03 0.05 0.04 0.03 0.06 0.03 0.00 0.03 0.02 0.04 0.01 0.00 0.00 0.00 0.00 0.00 0.00 0.00 0.01 0.05 0.03 0.01 0.00 0.00 0.00 0.00 0.00 0.00 0.02 0.01 0.00
0.01 0.01 0.00 0.00 0.00 0.00 0.00 0.00 0.00 0.00 0.00 0.00 0.01 0.00 0.00 0.00 0.00 0.00 0.02 0.01 0.02 0.03 0.03 0.05 0.02 0.02 0.00 0.00 0.01 0.01 0.01 0.00 0.00 0.01 0.01 0.02 0.02 0.03 0.01 0.00 0.00 0.01 0.01 0.00
0.00 0.03 0.01 0.00 0.00 0.00 0.00 0.00 0.00 0.00 0.00 0.00 0.00 0.00 0.00 0.01 0.00 0.00 0.02 0.05 0.01 0.03 0.01 0.01 0.00 0.01 0.03 0.02 0.01 0.00 0.01 0.00 0.00 0.00 0.00 0.01 0.01 0.01 0.01 0.01 0.01 0.02 0.02 0.01
0.00 0.01 0.04 0.01 0.00 0.00 0.00 0.00 0.00 0.00 0.00 0.00 0.00 0.00 0.00 0.01 0.01 0.01 0.00 0.01 0.01 0.02 0.02 0.00 0.00 0.00 0.00 0.00 0.00 0.02 0.04 0.02 0.02 0.02 0.01 0.00 0.00 0.00 0.00 0.01 0.02 0.02 0.02 0.02
0.00 0.00 0.01 0.04 0.02 0.02 0.00 0.00 0.00 0.00 0.00 0.00 0.00 0.00 0.00 0.00 0.00 0.01 0.00 0.00 0.00 0.00 0.00 0.00 0.00 0.00 0.01 0.01 0.03 0.02 0.02 0.02 0.02 0.02 0.01 0.01 0.01 0.01 0.00 0.01 0.01 0.01 0.01 0.00
0.00 0.00 0.00 0.01 0.03 0.02 0.01 0.00 0.00 0.00 0.00 0.00 0.00 0.00 0.00 0.00 0.00 0.00 0.00 0.00 0.00 0.00 0.00 0.00 0.01 0.02 0.04 0.02 0.01 0.01 0.00 0.00 0.00 0.00 0.00 0.00 0.00 0.01 0.01 0.00 0.00 0.00 0.00 0.00
MSLP
1010.13 1009.68 1009.51 1009.83 1010.36 1010.59 1011.17 1011.71 1012.09 1011.91 1012.17 1012.52 1012.40 1012.16 1011.70 1011.30 1010.45 1009.51 1008.89 1008.19 1007.45 1006.90 1006.82 1006.80 1006.86 1007.36 1007.87 1007.86 1008.23 1008.98 1009.57 1009.90 1010.11 1010.58 1011.16 1011.63 1011.93 1012.21 1012.66 1013.11 1013.50 1013.73 1013.92 1014.25
1011.26 1010.66 1010.66 1011.00 1011.30 1011.48 1012.00 1012.50 1012.65 1012.79 1012.89 1012.91 1012.73 1012.44 1012.07 1011.80 1011.32 1010.60 1009.87 1009.31 1008.80 1008.19 1007.71 1007.15 1006.95 1007.22 1007.21 1007.66 1007.84 1008.28 1009.02 1009.41 1010.01 1010.37 1010.82 1011.14 1011.53 1011.66 1012.06 1012.49 1012.91 1013.34 1013.53 1013.65
1012.73 1012.03 1011.74 1012.32 1012.69 1012.78 1013.19 1013.41 1013.57 1013.59 1013.60 1013.37 1012.95 1012.81 1012.46 1011.99 1011.66 1011.26 1010.64 1010.09 1009.61 1009.11 1008.63 1008.14 1007.54 1006.91 1006.79 1007.05 1007.58 1007.93 1008.27 1008.92 1009.62 1010.10 1010.18 1010.61 1011.11 1011.44 1011.50 1011.90 1012.41 1012.72 1013.04 1013.26
1014.00 1013.11 1013.28 1013.47 1013.04 1013.29 1013.63 1013.96 1014.10 1014.14 1014.10 1013.91 1013.56 1012.88 1012.36 1011.98 1011.69 1011.31 1010.88 1010.24 1009.71 1009.41 1008.95 1008.42 1007.81 1007.26 1006.91 1006.90 1007.23 1007.52 1007.75 1008.34 1008.84 1009.24 1009.69 1010.44 1010.64 1010.91 1011.03 1011.39 1011.63 1012.06 1012.62 1012.58
1015.02 1014.71 1014.66 1013.99 1013.79 1013.81 1013.93 1014.31 1014.37 1014.50 1014.30 1013.92 1013.36 1012.60 1011.74 1011.59 1011.58 1011.45 1011.06 1010.51 1009.97 1009.35 1009.04 1008.28 1007.86 1007.62 1007.18 1007.04 1007.15 1007.35 1007.41 1007.59 1007.77 1008.40 1008.71 1009.40 1009.90 1009.93 1010.19 1010.71 1011.02 1011.00 1011.22 1011.07
1015.72 1015.34 1014.97 1014.34 1013.81 1013.75 1014.11 1014.58 1014.60 1014.66 1014.61 1014.42 1014.00 1013.58 1012.03 1011.35 1011.54 1011.35 1010.92 1010.39 1009.87 1009.03 1008.85 1008.69 1008.03 1007.72 1007.60 1007.08 1007.07 1006.67 1006.74 1006.84 1007.20 1007.26 1007.87 1008.14 1008.40 1009.00 1009.61 1009.96 1009.90 1010.15 1010.21 1010.10
1016.26 1015.75 1015.11 1014.44 1014.13 1013.81 1014.64 1015.21 1014.67 1014.71 1014.64 1014.56 1014.52 1013.89 1012.60 1011.82 1010.57 1010.81 1010.76 1010.20 1009.62 1009.25 1008.96 1008.37 1008.15 1007.57 1007.82 1007.44 1006.96 1006.64 1006.49 1006.50 1006.51 1006.66 1006.78 1007.30 1007.56 1008.18 1008.76 1009.16 1009.68 1009.98 1009.99 1009.91
1017.08 1016.42 1015.47 1014.66 1014.41 1014.67 1014.92 1014.64 1014.69 1014.60 1014.36 1014.13 1013.66 1013.11 1012.46 1011.86 1011.13 1010.20 1009.73 1010.08 1009.68 1009.31 1008.82 1008.10 1007.81 1007.55 1007.33 1007.55 1006.83 1006.34 1006.41 1006.33 1006.00 1006.07 1005.70 1006.20 1007.11 1007.47 1008.32 1008.30 1009.00 1009.41 1009.77 1009.98
1017.06 1016.30 1015.26 1014.85 1014.76 1014.68 1014.76 1014.74 1014.53 1014.43 1013.97 1013.59 1013.13 1012.57 1012.00 1011.24 1010.75 1010.13 1009.26 1009.14 1009.21 1009.00 1008.49 1007.69 1007.23 1006.96 1007.12 1006.33 1006.94 1005.95 1005.74 1005.86 1006.06 1005.63 1005.52 1005.24 1006.52 1007.11 1007.49 1008.41 1008.48 1009.04 1009.32 1009.79
1016.70 1015.79 1015.28 1014.80 1014.72 1014.50 1014.38 1014.47 1014.01 1013.67 1013.31 1012.92 1012.45 1011.74 1011.13 1010.51 1009.99 1009.61 1008.83 1008.35 1008.38 1008.26 1008.20 1007.66 1007.19 1006.94 1006.82 1006.48 1006.11 1005.54 1005.60 1005.64 1005.68 1005.50 1005.33 1004.80 1005.90 1006.57 1007.05 1007.87 1008.24 1008.35 1008.86 1009.25
1016.71 1015.87 1015.36 1014.61 1014.32 1014.18 1013.91 1013.72 1013.40 1012.84 1012.43 1011.92 1011.52 1010.70 1010.45 1009.82 1009.37 1008.86 1008.34 1007.74 1007.70 1007.58 1007.30 1006.95 1006.63 1006.66 1006.31 1006.08 1005.66 1005.49 1005.43 1005.46 1005.02 1004.71 1004.76 1005.02 1005.89 1006.57 1006.80 1007.12 1006.78 1007.29 1008.23 1008.54
1016.62 1015.94 1015.77 1014.81 1014.15 1013.81 1013.64 1013.03 1012.36 1011.95 1011.13 1010.55 1010.44 1009.73 1009.33 1008.83 1008.38 1007.97 1007.53 1007.03 1006.81 1006.47 1006.25 1005.83 1005.74 1005.72 1005.47 1005.26 1005.20 1005.21 1005.09 1004.83 1004.44 1004.33 1004.52 1004.74 1005.59 1006.75 1007.18 1007.81 1007.59 1006.98 1007.59 1007.83
1016.17 1015.44 1015.19 1014.24 1013.58 1012.98 1012.83 1012.12 1011.44 1011.01 1010.28 1009.72 1008.94 1008.77 1008.11 1007.69 1007.24 1006.80 1006.57 1006.21 1005.93 1005.53 1005.10 1004.79 1004.55 1004.28 1003.87 1003.96 1004.30 1004.27 1003.98 1003.74 1003.81 1003.85 1004.09 1004.58 1005.09 1005.79 1006.97 1008.18 1008.61 1007.78 1008.07 1008.10
1015.57 1015.44 1014.68 1013.78 1013.09 1012.31 1011.88 1011.06 1010.63 1009.96 1009.27 1008.67 1007.98 1007.42 1006.89 1006.52 1006.08 1005.70 1005.39 1005.09 1004.82 1004.50 1004.17 1003.83 1003.61 1003.24 1002.63 1002.93 1003.09 1003.15 1002.96 1002.75 1002.89 1002.88 1003.31 1003.83 1004.46 1004.75 1005.41 1006.36 1007.18 1008.12 1008.46 1008.20
1015.06 1014.93 1014.35 1013.36 1012.67 1011.85 1011.11 1010.49 1009.65 1008.81 1008.08 1007.42 1006.95 1006.43 1005.85 1005.39 1005.03 1004.61 1004.31 1004.14 1003.95 1003.72 1003.22 1002.91 1002.47 1001.88 1001.74 1001.94 1002.47 1002.88 1002.75 1002.57 1002.58 1002.71 1003.17 1003.44 1003.90 1004.13 1004.91 1005.50 1005.98 1007.12 1008.12 1008.65
1014.98 1014.41 1013.63 1012.97 1012.06 1011.25 1010.58 1009.68 1009.12 1008.10 1007.35 1006.71 1006.10 1005.47 1004.92 1004.43 1004.11 1003.78 1003.42 1003.27 1003.42 1002.86 1002.27 1002.16 1001.78 1001.02 1001.21 1001.42 1001.88 1002.19 1002.38 1002.57 1002.61 1002.90 1003.07 1003.35 1003.97 1004.27 1004.73 1004.81 1005.61 1006.44 1007.43 1008.14
1015.10 1014.09 1013.24 1012.57 1011.82 1010.99 1010.27 1009.49 1008.66 1007.67 1006.67 1005.89 1005.33 1004.65 1004.07 1003.58 1003.28 1003.05 1002.51 1002.35 1002.22 1001.83 1001.54 1001.47 1000.85 1000.58 1000.68 1000.74 1001.02 1001.16 1001.55 1001.96 1002.39 1002.13 1002.57 1003.05 1003.65 1003.95 1003.68 1003.92 1004.96 1005.80 1006.57 1007.26
1014.70 1013.97 1013.23 1012.62 1011.72 1010.84 1009.92 1009.11 1008.22 1007.30 1006.44 1005.42 1004.83 1004.17 1003.81 1003.14 1002.71 1002.26 1001.88 1001.72 1001.57 1001.30 1000.68 1000.44 1000.27 1000.31 1000.25 1000.36 1000.35 1000.59 1001.03 1001.41 1001.71 1001.24 1001.63 1002.67 1002.96 1002.99 1003.44 1003.88 1004.59 1005.29 1006.36 1007.05
1013.99 1013.43 1012.74 1012.25 1011.54 1010.88 1009.98 1008.98 1008.18 1007.48 1006.52 1005.58 1004.46 1003.66 1003.59 1002.93 1002.37 1002.03 1001.74 1001.53 1001.23 1000.94 1000.14 1000.06 999.82 999.81 999.86 999.99 1000.24 1000.64 1000.66 1000.84 1001.10 1001.41 1001.50 1002.00 1002.23 1002.42 1002.83 1003.39 1004.26 1005.12 1005.71 1006.52
1013.60 1013.04 1012.55 1011.97 1011.40 1010.88 1010.10 1009.29 1008.43 1007.58 1006.79 1005.80 1004.81 1003.74 1003.12 1002.74 1002.16 1001.79 1001.52 1001.31 1001.06 1000.84 1000.40 999.99 999.71 999.78 999.96 999.97 1000.07 1000.33 1000.50 1000.74 1000.91 1001.21 1001.50 1001.77 1002.26 1003.00 1003.15 1003.50 1003.93 1004.59 1005.27 1005.84
1013.49 1012.98 1012.50 1011.98 1011.54 1010.94 1010.24 1009.64 1008.85 1007.97 1007.14 1006.28 1005.47 1004.49 1003.70 1003.34 1002.78 1002.21 1001.56 1001.22 1000.87 1000.47 999.93 999.72 999.75 999.80 999.75 999.82 1000.13 1000.45 1000.57 1000.73 1001.03 1001.34 1001.63 1002.05 1002.54 1002.81 1003.28 1003.65 1004.08 1004.49 1004.86 1005.34
1013.40 1012.94 1012.57 1012.16 1011.73 1011.23 1010.59 1010.03 1009.32 1008.53 1007.66 1006.67 1006.00 1005.31 1004.52 1003.91 1003.29 1002.65 1002.05 1001.80 1001.12 1000.68 1000.13 999.84 999.69 999.71 999.79 999.85 999.99 1000.37 1000.63 1000.77 1001.10 1001.44 1001.78 1002.23 1002.58 1002.77 1002.99 1003.38 1003.74 1004.09 1004.36 1004.34
1013.20 1013.02 1012.69 1012.24 1011.87 1011.59 1010.93 1010.37 1009.77 1009.12 1008.36 1007.54 1006.67 1005.91 1005.19 1004.55 1003.91 1003.18 1002.48 1002.13 1001.48 1001.16 1000.77 1000.44 1000.15 1000.02 999.95 999.98 1000.16 1000.42 1000.64 1000.76 1001.04 1001.34 1001.66 1001.76 1001.95 1002.24 1002.55 1002.95 1003.37 1003.52 1003.80 1003.96
1013.19 1012.90 1012.60 1012.19 1011.79 1011.52 1011.25 1010.64 1010.20 1009.51 1008.82 1008.11 1007.45 1006.78 1006.05 1005.08 1004.50 1003.97 1003.46 1003.07 1002.24 1001.63 1001.61 1001.23 1000.80 1000.54 1000.32 1000.38 1000.48 1000.65 1000.82 1000.77 1000.93 1001.19 1001.38 1001.53 1001.71 1001.99 1002.11 1002.64 1002.87 1003.07 1003.19 1003.28
1013.01 1012.88 1012.64 1012.25 1011.92 1011.74 1011.45 1011.08 1010.49 1009.78 1009.15 1008.61 1008.16 1007.57 1006.88 1006.27 1005.82 1005.15 1004.41 1003.85 1003.35 1002.73 1002.18 1001.88 1001.57 1001.20 1000.90 1000.80 1000.87 1000.88 1000.89 1001.09 1001.36 1001.58 1001.73 1001.83 1001.89 1001.98 1002.24 1002.50 1002.53 1002.51 1002.73 1002.92
1012.37 1012.26 1012.10 1011.94 1011.88 1011.62 1011.42 1011.27 1010.91 1010.34 1009.91 1009.40 1008.64 1008.21 1007.66 1006.99 1006.31 1005.78 1005.09 1004.74 1004.19 1003.58 1003.27 1002.84 1002.49 1002.01 1001.79 1001.83 1001.79 1001.94 1002.13 1002.26 1002.35 1002.37 1002.25 1002.41 1002.44 1002.66 1002.89 1002.94 1002.69 1002.62 1002.91 1003.03
1012.52 1012.09 1011.64 1011.52 1011.42 1011.41 1011.34 1011.35 1011.16 1010.76 1010.39 1010.08 1009.51 1008.99 1008.41 1007.65 1007.09 1006.61 1006.15 1005.74 1005.25 1004.84 1004.54 1004.14 1003.92 1003.45 1003.09 1002.82 1002.99 1003.41 1003.43 1003.43 1003.50 1003.60 1003.36 1003.97 1004.19 1004.04 1003.68 1003.65 1003.67 1003.49 1003.95 1003.82
Thickness
5740 5742 5745 5741 5735 5741 5733 5723 5717 5723 5718 5715 5721 5728 5739 5745 5753 5762 5768 5777 5784 5790 5793 5793 5791 5786 5782 5782 5779 5774 5770 5767 5766 5766 5764 5762 5761 5761 5758 5756 5754 5755 5756 5754
5726 5731 5724 5717 5714 5720 5711 5706 5710 5705 5706 5711 5714 5721 5726 5730 5734 5742 5751 5758 5764 5772 5776 5784 5787 5782 5785 5780 5779 5776 5769 5765 5762 5760 5759 5759 5760 5761 5759 5756 5753 5751 5752 5754
5700 5705 5709 5695 5694 5694 5693 5692 5690 5685 5692 5697 5700 5703 5708 5714 5719 5726 5734 5741 5747 5753 5760 5765 5773 5780 5780 5779 5777 5773 5771 5767 5759 5755 5757 5757 5756 5757 5758 5755 5752 5750 5749 5751
5682 5692 5677 5683 5695 5693 5683 5681 5680 5680 5679 5680 5682 5691 5696 5702 5704 5711 5719 5727 5735 5740 5746 5753 5762 5770 5771 5774 5771 5769 5768 5764 5762 5759 5756 5751 5753 5754 5755 5753 5753 5752 5748 5751
5668 5657 5667 5676 5679 5676 5670 5666 5671 5664 5666 5671 5674 5681 5688 5694 5694 5697 5703 5711 5719 5728 5732 5743 5749 5755 5762 5762 5762 5763 5764 5762 5762 5760 5760 5754 5751 5755 5758 5755 5753 5756 5757 5759
5657 5664 5648 5662 5671 5675 5667 5642 5659 5657 5654 5653 5653 5647 5667 5680 5680 5680 5689 5698 5705 5716 5720 5725 5736 5742 5745 5751 5754 5759 5761 5761 5760 5763 5761 5760 5757 5757 5756 5755 5756 5759 5761 5762
5645 5648 5649 5662 5658 5660 5637 5635 5647 5646 5642 5640 5635 5638 5656 5664 5677 5673 5674 5682 5692 5698 5705 5714 5719 5728 5729 5737 5744 5752 5756 5757 5760 5760 5762 5761 5760 5755 5751 5752 5748 5750 5754 5758
5628 5633 5632 5652 5649 5638 5634 5637 5637 5635 5635 5634 5637 5639 5643 5647 5655 5667 5670 5667 5675 5682 5691 5703 5709 5715 5720 5722 5737 5746 5747 5750 5756 5757 5763 5762 5757 5757 5748 5750 5748 5747 5748 5750
5630 5626 5639 5642 5637 5638 5632 5629 5630 5629 5631 5629 5629 5630 5634 5639 5642 5648 5659 5662 5663 5669 5679 5691 5700 5706 5709 5724 5723 5738 5743 5745 5745 5755 5758 5763 5755 5754 5752 5744 5744 5745 5745 5744
5631 5637 5635 5634 5631 5630 5629 5626 5629 5627 5627 5625 5623 5626 5629 5634 5639 5642 5649 5656 5656 5660 5666 5676 5683 5693 5700 5708 5718 5728 5732 5734 5739 5745 5750 5761 5754 5752 5751 5745 5741 5744 5744 5743
5616 5624 5625 5629 5627 5627 5628 5627 5624 5625 5623 5622 5623 5628 5625 5629 5632 5636 5640 5647 5649 5652 5659 5668 5674 5682 5692 5699 5710 5715 5720 5723 5733 5742 5747 5750 5745 5745 5746 5745 5752 5747 5745 5745
5608 5618 5614 5618 5624 5624 5622 5624 5626 5623 5626 5627 5622 5627 5627 5629 5629 5631 5634 5638 5642 5648 5655 5665 5670 5677 5688 5696 5701 5704 5708 5715 5724 5731 5737 5740 5737 5731 5727 5725 5732 5740 5743 5747
5613 5618 5615 5622 5626 5627 5623 5625 5627 5625 5625 5624 5629 5623 5628 5629 5630 5631 5632 5633 5635 5642 5651 5661 5670 5679 5689 5695 5697 5701 5708 5714 5717 5720 5724 5725 5729 5727 5720 5712 5712 5725 5729 5736
5612 5611 5613 5619 5623 5629 5626 5628 5626 5626 5625 5625 5627 5628 5628 5628 5631 5631 5631 5632 5635 5640 5648 5656 5666 5677 5689 5691 5694 5699 5705 5712 5716 5718 5718 5719 5719 5724 5724 5721 5721 5720 5718 5727
5610 5609 5613 5621 5622 5624 5626 5625 5627 5627 5626 5627 5627 5628 5629 5629 5630 5632 5631 5630 5631 5638 5646 5654 5663 5677 5685 5687 5689 5689 5696 5702 5705 5707 5707 5709 5709 5713 5715 5716 5719 5718 5716 5714
5606 5607 5612 5615 5621 5623 5622 5624 5622 5626 5626 5626 5627 5629 5630 5631 5631 5631 5632 5630 5628 5634 5645 5651 5660 5673 5678 5683 5684 5686 5688 5689 5692 5692 5693 5691 5691 5695 5700 5709 5711 5714 5713 5713
5599 5607 5611 5613 5615 5617 5618 5619 5619 5623 5627 5627 5627 5630 5632 5633 5632 5630 5631 5631 5632 5637 5643 5649 5659 5669 5675 5680 5683 5688 5687 5686 5684 5688 5686 5685 5685 5689 5701 5708 5707 5709 5710 5709
5597 5601 5605 5607 5612 5616 5618 5619 5621 5621 5624 5627 5627 5629 5628 5630 5630 5632 5634 5631 5631 5635 5644 5652 5659 5664 5672 5677 5681 5685 5685 5684 5682 5686 5684 5680 5683 5693 5699 5704 5704 5705 5702 5701
5599 5601 5605 5606 5608 5610 5613 5615 5618 5617 5620 5622 5624 5624 5626 5629 5630 5632 5633 5632 5635 5638 5647 5653 5661 5667 5671 5673 5675 5676 5681 5682 5679 5673 5676 5679 5688 5697 5701 5702 5699 5696 5695 5692
5596 5600 5602 5604 5607 5607 5608 5611 5613 5615 5616 5617 5621 5625 5626 5629 5632 5632 5633 5633 5636 5639 5644 5652 5659 5663 5666 5668 5671 5674 5678 5678 5679 5678 5681 5685 5686 5685 5689 5689 5690 5686 5682 5682
5592 5595 5598 5600 5602 5604 5606 5607 5609 5611 5612 5613 5617 5620 5623 5623 5627 5629 5631 5632 5637 5641 5646 5651 5653 5658 5665 5668 5668 5669 5673 5675 5676 5677 5677 5678 5678 5679 5680 5682 5681 5677 5676 5672
5589 5592 5593 5595 5596 5598 5601 5601 5603 5605 5608 5610 5612 5615 5619 5621 5624 5626 5628 5628 5634 5636 5645 5651 5655 5658 5662 5665 5667 5667 5668 5670 5669 5670 5671 5671 5671 5672 5674 5674 5673 5672 5673 5676
5587 5587 5588 5592 5593 5592 5595 5597 5598 5599 5602 5604 5607 5611 5614 5616 5619 5623 5627 5627 5628 5632 5639 5644 5648 5652 5656 5660 5661 5662 5663 5666 5666 5666 5666 5668 5670 5669 5670 5671 5670 5672 5672 5672
5582 5584 5586 5589 5590 5590 5590 5592 5592 5595 5598 5601 5603 5605 5608 5614 5616 5619 5622 5621 5624 5628 5632 5635 5640 5644 5648 5652 5653 5654 5655 5659 5660 5661 5663 5663 5665 5666 5668 5666 5666 5666 5668 5669
5580 5581 5582 5584 5586 5586 5584 5586 5589 5593 5595 5596 5596 5599 5602 5604 5605 5609 5613 5616 5618 5622 5626 5628 5632 5636 5643 5645 5645 5647 5649 5650 5651 5653 5654 5655 5658 5661 5661 5660 5661 5662 5661 5661
5582 5583 5584 5584 5584 5584 5584 5583 5584 5587 5588 5589 5593 5592 5594 5599 5602 5603 5606 5607 5610 5614 5617 5620 5623 5628 5630 5631 5632 5632 5632 5632 5633 5634 5638 5639 5643 5645 5645 5645 5649 5652 5651 5652
5578 5579 5584 5585 5585 5584 5583 5582 5582 5585 5584 5583 5585 5586 5587 5591 5595 5597 5597 5599 5601 5604 5605 5608 5610 5613 5616 5618 5617 5613 5615 5614 5613 5615 5617 5616 5618 5621 5627 5629 5629 5633 5632 5635